User: anonymous
Location: Vancouver
(49.2500°N, 123.1330°W)
Time: 06:53:38
(UTC-07:00)
Language:

JAS-1B - Orbit

View from above orbital plane
View from above orbital plane
View from above satellite
View from above satellite

Ground track
Ground track

The orbit data is extracted from the following two-line orbital elements,

1 20480U 90013C   14212.49464957 -.00000028  00000-0  17513-4 0  7973
2 20480 099.0474 167.3062 0539480 253.3991 231.2223 12.83394618146815
Epoch (UTC): 31 July 2014 11:52:17
Eccentricity: 0.0539480
inclination: 99.0474°
perigee height: 912 km
apogee height: 1743 km
right ascension of ascending node: 167.3062°
argument of perigee: 253.3991°
revolutions per day: 12.83394618
mean anomaly at epoch: 231.2223°
orbit number at epoch: 14681

The dashed part of the orbit path shows where the satellite is in the earth's shadow,  

DLR